FW1555 Weather Reports


Display with metric or nautical units.
time (UTC)temp
F
wind
direction
speed
MPH
gust
MPH
rain 1hr
in
rain 24hr
in
rain mn
in
humidity
%
barometer
mb
20260904103106 71 0 0.0 0.0 0.00 0.01 0.00 98 1010.9
20260904101605 71 0 0.0 2.0 0.00 0.01 0.00 98 1010.8
20260904100100 71 0 0.0 0.0 0.00 0.01 0.00 98 1010.7
20260904094600 71 0 0.0 0.0 0.00 0.01 0.00 98 1010.3
20260904093056 72 0 0.0 0.0 0.00 0.01 0.00 97 1010.2
20260904091551 72 0 0.0 0.0 0.00 0.01 0.00 98 1010.1
20260904090049 72 0 0.0 3.0 0.00 0.01 0.00 98 1010.1
20260904084559 72 0 0.0 0.0 0.00 0.01 0.00 98 1010.2
20260904083058 72 0 0.0 0.0 0.00 0.01 0.00 98 1009.9
20260904081552 73 0 0.0 0.0 0.00 0.01 0.00 98 1010.1
20260904080049 73 0 0.0 0.0 0.00 0.01 0.00 99 1009.7
20260904074622 74 0 0.0 0.0 0.00 0.02 0.00 99 1009.9
20260904073053 73 0 0.0 0.0 0.00 0.02 0.00 99 1010.2
20260904071552 73 0 0.0 0.0 0.00 0.02 0.00 98 1009.9
20260904070051 74 0 0.0 0.0 0.00 0.02 0.00 98 1009.7
20260904064556 74 0 0.0 0.0 0.00 0.04 0.00 98 1010.0
20260904063106 74 0 0.0 0.0 0.00 0.04 0.00 98 1010.6
20260904061604 74 0 0.0 0.0 0.00 0.04 0.00 98 1010.7
20260904060114 74 0 0.0 0.0 0.00 0.04 0.00 97 1010.4
20260904054601 74 0 0.0 0.0 0.00 0.15 0.00 97 1010.8
20260904053053 74 0 0.0 0.0 0.00 0.15 0.00 97 1011.3
20260904051601 74 0 0.0 0.0 0.00 0.15 0.00 97 1011.1
20260904050100 74 0 0.0 0.0 0.00 0.15 0.00 97 1011.1
20260904044601 74 0 0.0 0.0 0.00 0.25 0.00 97 1011.3
20260904043051 74 0 0.0 0.0 0.00 0.25 0.00 96 1011.3
20260904041551 75 0 0.0 0.0 0.00 0.25 0.00 96 1011.7
20260904040105 75 0 0.0 0.0 0.00 0.25 0.00 96 1011.7
20260904034604 75 0 0.0 0.0 0.00 0.25 0.25 96 1011.5
20260904033052 74 0 0.0 0.0 0.00 0.25 0.25 96 1011.3
20260904031601 74 0 0.0 0.0 0.00 0.25 0.25 96 1011.4
20260904030058 74 0 0.0 0.0 0.00 0.25 0.25 96 1011.6
20260904024551 75 0 0.0 0.0 0.00 0.25 0.25 95 1011.6
20260904023050 75 0 0.0 0.0 0.00 0.25 0.25 95 1012.1
20260904021601 75 0 0.0 0.0 0.00 0.25 0.25 95 1012.2
20260904020100 75 0 0.0 0.0 0.00 0.25 0.25 95 1012.4
20260904014556 75 0 0.0 0.0 0.00 0.25 0.25 95 1012.6
20260904013051 75 0 0.0 0.0 0.00 0.25 0.25 94 1012.4
20260904011551 75 0 0.0 0.0 0.00 0.25 0.25 94 1012.4
20260904010054 75 0 0.0 0.0 0.00 0.25 0.25 93 1012.3
20260904004601 75 0 0.0 0.0 0.00 0.25 0.25 93 1012.3
20260904003051 76 0 0.0 0.0 0.00 0.25 0.25 92 1012.5
20260904001550 76 0 0.0 0.0 0.00 0.25 0.25 91 1012.1
20260904000134 77 0 0.0 0.0 0.00 0.25 0.25 90 1011.9
20260903234556 78 0 0.0 0.0 0.00 0.25 0.25 89 1011.9
20260903233052 78 0 0.0 0.0 0.00 0.25 0.25 88 1011.7
20260903231549 79 0 0.0 0.0 0.00 0.25 0.25 87 1011.3
20260903230108 81 0 0.0 0.0 0.00 0.25 0.25 84 1011.6
20260903224606 82 0 0.0 0.0 0.00 0.25 0.25 81 1011.8
20260903223101 83 0 0.0 0.0 0.00 0.25 0.25 80 1012.0
20260903221600 84 0 0.0 0.0 0.00 0.25 0.25 79 1012.1
20260903220118 85 0 0.0 0.0 0.00 0.25 0.25 78 1011.9
20260903214557 85 0 0.0 0.0 0.00 0.25 0.25 77 1011.9
20260903213052 86 0 0.0 0.0 0.00 0.25 0.25 75 1011.9
20260903211615 85 0 0.0 0.0 0.00 0.25 0.25 76 1011.8
20260903204558 86 0 0.0 0.0 0.00 0.25 0.25 73 1011.9
20260903203053 87 0 0.0 2.0 0.00 0.25 0.25 74 1011.9
20260903201559 86 0 0.0 1.0 0.00 0.25 0.25 75 1011.9
20260903200053 84 0 0.0 2.0 0.00 0.25 0.25 76 1012.0
20260903194551 84 0 0.0 4.0 0.00 0.27 0.25 79 1012.1
20260903193100 85 261 2.0 8.0 0.00 0.27 0.25 74 1012.3
20260903191553 85 236 0.0 5.0 0.00 0.27 0.25 75 1012.5
20260903190050 85 0 0.0 7.0 0.00 0.27 0.25 72 1012.5
20260903184604 85 0 0.0 2.0 0.00 0.38 0.25 73 1012.7
20260903183058 83 0 0.0 7.0 0.00 0.38 0.25 74 1012.7
20260903181555 83 0 0.0 4.0 0.00 0.38 0.25 76 1012.7
20260903180104 82 0 0.0 7.0 0.00 0.38 0.25 77 1012.6
20260903174612 82 0 1.0 10.0 0.00 0.38 0.25 78 1012.8
20260903173106 82 279 1.0 8.0 0.00 0.38 0.25 78 1013.2
20260903171602 81 0 4.0 11.0 0.00 0.38 0.25 78 1013.5
20260903170107 81 262 5.0 12.0 0.00 0.38 0.25 78 1013.6
20260903164554 80 0 0.0 6.0 0.00 0.38 0.25 81 1013.8
20260903163049 79 259 2.0 9.0 0.00 0.38 0.25 81 1013.8
20260903161553 78 259 3.0 12.0 0.00 0.38 0.25 82 1013.9
20260903160050 78 254 0.0 4.0 0.00 0.38 0.25 87 1014.1
20260903154555 77 0 4.0 13.0 0.00 0.38 0.25 88 1014.5
20260903153058 76 0 2.0 8.0 0.00 0.38 0.25 90 1014.5
20260903151558 75 0 1.0 9.0 0.00 0.38 0.25 91 1014.4
20260903150113 74 286 0.0 9.0 0.00 0.38 0.25 92 1014.5
20260903144601 73 0 0.0 8.0 0.00 0.38 0.25 93 1014.5
20260903143100 72 265 2.0 9.0 0.00 0.38 0.25 94 1014.6
20260903141556 72 0 3.0 11.0 0.00 0.38 0.25 95 1014.7
20260903140106 71 273 0.0 4.0 0.00 0.38 0.25 97 1014.5
20260903134601 71 269 1.0 6.0 0.00 0.38 0.25 99 1014.5
20260903133100 70 0 1.0 8.0 0.00 0.38 0.25 100 1014.4
20260903131600 70 0 0.0 7.0 0.00 0.38 0.25 100 1014.5
20260903130117 70 0 0.0 3.0 0.00 0.38 0.25 100 1014.7
20260903124607 69 0 0.0 2.0 0.00 0.38 0.25 100 1014.9
20260903123100 69 0 0.0 0.0 0.00 0.38 0.25 100 1015.1
20260903121553 68 0 0.0 0.0 0.00 0.38 0.25 100 1015.1
20260903120100 68 0 0.0 0.0 0.01 0.38 0.25 100 1014.7
20260903114607 68 0 0.0 0.0 0.01 0.38 0.25 100 1015.1
20260903113058 68 0 0.0 0.0 0.01 0.38 0.25 100 1015.2
20260903111622 67 0 0.0 0.0 0.01 0.38 0.25 100 1015.2
20260903110107 67 0 0.0 0.0 0.00 0.37 0.24 100 1015.2
20260903104631 67 0 0.0 0.0 0.00 0.37 0.24 100 1015.2